Regional Weather Roundup
Issued by NWS

Home | Current Version | Previous Version | Text Only | Print | Product List | Glossary On
Versions: 1 2 3 4 5 6 7 8 9 10 11 12 13 14 15 16 17 18 19 20 21 22 23 24 25 26 27 28 29 30 31 32 33 34 35 36 37 38 39 40 41 42 43 44 45 46 47 48 49 50
000
ASUS45 KCYS 311310
RWRWY

WYOMING REGIONAL WEATHER ROUNDUP
NATIONAL WEATHER SERVICE CHEYENNE WY
700 AM MDT MON AUG 31 2015

NOTE:  "FAIR" INDICATES FEW OR NO CLOUDS BELOW 12,000 FEET
WITH NO SIGNIFICANT WEATHER AND/OR OBSTRUCTIONS TO VISIBILITY.

WYZ001-311400-
YELLOWSTONE NATIONAL PARK

CITY           SKY/WX    TMP DP  RH WIND       PRES   REMARKS
LK YELLOWSTONE   N/A     32  25  75 CALM      30.23R
W YELLOWSTONE  NOT AVBL

$$
WYZ002>013-054>058-071-098>099-311400-
NORTHERN WYOMING

CITY           SKY/WX    TMP DP  RH WIND       PRES   REMARKS
JACKSON        FAIR      46  28  49 S5        30.17S
CODY           FAIR      46  36  66 S3        30.03R
GREYBULL       FAIR      55  41  59 SW3       29.98R
WORLAND        FAIR      48  40  73 SE6       29.99R
SHERIDAN       FAIR      54  42  64 E3        30.02R
BUFFALO        FAIR      52  41  66 VRB3      30.08R
GILLETTE       FAIR      54  47  77 N12       30.03R
HULETT         CLOUDY    57  52  82 N9        30.04R
NEWCASTLE      FAIR      63  46  55 NW7       29.99R

$$
WYZ014>020-022>026-101>103-311400-
CENTRAL WYOMING

CITY           SKY/WX    TMP DP  RH WIND       PRES   REMARKS
BIG PINEY      FAIR      37  25  61 CALM      30.24R
PINEDALE       FAIR      34  30  86 CALM      30.24R
DUBOIS         FAIR      43  21  42 NW13      30.18R
LANDER         FAIR      55  35  47 CALM      30.07S
RIVERTON       FAIR      57  31  37 W10       30.08R
CASPER         FAIR      62  44  51 VRB3      30.07R
DOUGLAS        FAIR      66  45  46 NW6       30.04R

$$
WYZ021-027>030-104>119-311400-
SOUTHERN WYOMING

CITY           SKY/WX    TMP DP  RH WIND       PRES   REMARKS
EVANSTON       CLOUDY    51  37  58 S5        30.23S
KEMMERER       FAIR      45  32  61 N7        30.25R
FORT BRIDGER   SUNNY     55  45  67 W13       30.26R
ROCK SPRINGS   FAIR      51  47  86 W7        30.20R
DIXON          PTSUNNY   55  51  88 NE9       30.25R
RAWLINS        FAIR      60  41  49 W15       30.19R
SARATOGA       FAIR      54  50  87 SE9       30.23R
LARAMIE        CLOUDY    55  49  80 MISG      30.20S
CHEYENNE       CLOUDY    66  47  50 NW9       30.13R
TORRINGTON     CLOUDY    70  53  54 W8        29.97F
PINE BLUFFS    PTSUNNY   68  46  45 NW13      30.07R

$$


USA.gov is the U.S. government's official web portal to all federal, state and local government web resources and services.